| time (UTC) | temp F | wind direction | speed knots | gust knots | rain 1hr in | rain 24hr in | rain mn in | humidity % | barometer mb |
| 20260510044504 | 73 | 138 | 4.3 | 7.8 | 0.00 | 0.02 | 0.02 | 70 | 1009.8 |
| 20260510043007 | 73 | 196 | 4.3 | 10.4 | 0.00 | 0.02 | 0.02 | 1009.8 | |
| 20260510041517 | 72 | 147 | 3.5 | 7.8 | 0.00 | 0.02 | 0.02 | 71 | 1010.1 |
| 20260510040018 | 72 | 179 | 3.5 | 4.3 | 0.00 | 0.02 | 0.02 | 71 | 1010.2 |
| 20260510034524 | 73 | 179 | 1.7 | 4.3 | 0.00 | 0.02 | 0.02 | 69 | 1010.3 |
| 20260510033008 | 74 | 173 | 2.6 | 4.3 | 0.00 | 0.02 | 0.02 | 68 | 1010.2 |
| 20260510031521 | 74 | 178 | 2.6 | 6.1 | 0.00 | 0.02 | 0.02 | 66 | 1010.1 |
| 20260510030015 | 74 | 164 | 1.7 | 5.2 | 0.00 | 0.02 | 0.02 | 66 | 1010.1 |
| 20260510024521 | 75 | 175 | 1.7 | 4.3 | 0.00 | 0.02 | 0.02 | 67 | 1009.9 |
| 20260510023026 | 75 | 166 | 1.7 | 3.5 | 0.00 | 0.02 | 0.02 | 66 | 1009.6 |
| 20260510021514 | 76 | 163 | 0.9 | 2.6 | 0.00 | 0.02 | 0.02 | 64 | 1009.6 |
| 20260510020019 | 78 | 155 | 0.9 | 2.6 | 0.00 | 0.02 | 0.02 | 61 | 1009.6 |
| 20260510014519 | 79 | 165 | 1.7 | 3.5 | 0.00 | 0.02 | 0.02 | 59 | 1009.4 |
| 20260510013023 | 80 | 167 | 0.9 | 3.5 | 0.00 | 0.02 | 0.02 | 56 | 1009.2 |
| 20260510011508 | 81 | 130 | 1.7 | 3.5 | 0.00 | 0.02 | 0.02 | 55 | 1008.9 |
| 20260510010014 | 83 | 174 | 1.7 | 4.3 | 0.00 | 0.02 | 0.02 | 54 | 1009.0 |
| 20260510004520 | 84 | 173 | 1.7 | 4.3 | 0.00 | 0.02 | 0.02 | 52 | 1009.0 |
| 20260510003029 | 85 | 178 | 2.6 | 7.0 | 0.00 | 0.02 | 0.02 | 48 | 1009.0 |
| 20260510001527 | 86 | 169 | 2.6 | 7.8 | 0.00 | 0.02 | 0.02 | 49 | 1009.0 |
| 20260510000018 | 86 | 173 | 3.5 | 7.8 | 0.00 | 0.02 | 0.02 | 48 | 1009.0 |
| 20260509234520 | 87 | 194 | 4.3 | 7.0 | 0.00 | 0.02 | 0.02 | 47 | 1009.0 |
| 20260509233022 | 87 | 140 | 4.3 | 8.7 | 0.00 | 0.02 | 0.02 | 46 | 1009.0 |
| 20260509231527 | 87 | 140 | 4.3 | 8.7 | 0.00 | 0.02 | 0.02 | 47 | 1008.9 |
| 20260509230012 | 87 | 128 | 5.2 | 8.7 | 0.00 | 0.02 | 0.02 | 46 | 1009.0 |
| 20260509224517 | 88 | 156 | 4.3 | 8.7 | 0.00 | 0.02 | 0.02 | 46 | 1009.0 |
| 20260509223021 | 88 | 167 | 3.5 | 10.4 | 0.00 | 0.02 | 0.02 | 46 | 1009.0 |
| 20260509221526 | 88 | 178 | 3.5 | 11.3 | 0.00 | 0.02 | 0.02 | 47 | 1009.1 |
| 20260509220038 | 87 | 170 | 5.2 | 8.7 | 0.00 | 0.02 | 0.02 | 47 | 1009.1 |
| 20260509214513 | 87 | 203 | 7.0 | 9.6 | 0.00 | 0.02 | 0.02 | 50 | 1009.2 |
| 20260509213022 | 88 | 181 | 6.1 | 10.4 | 0.00 | 0.02 | 0.02 | 47 | 1009.3 |
| 20260509211524 | 88 | 204 | 3.5 | 10.4 | 0.00 | 0.02 | 0.02 | 46 | 1009.5 |
| 20260509210026 | 88 | 187 | 2.6 | 7.8 | 0.00 | 0.02 | 0.02 | 51 | 1009.6 |
| 20260509204515 | 87 | 173 | 6.1 | 10.4 | 0.00 | 0.02 | 0.02 | 46 | 1010.1 |
| 20260509203029 | 87 | 124 | 1.7 | 5.2 | 0.00 | 0.02 | 0.02 | 44 | 1010.2 |
| 20260509201522 | 87 | 221 | 5.2 | 7.8 | 0.00 | 0.02 | 0.02 | 44 | 1010.3 |
| 20260509200036 | 87 | 188 | 2.6 | 8.7 | 0.00 | 0.02 | 0.02 | 46 | 1010.4 |
| 20260509194543 | 86 | 71 | 0.9 | 7.0 | 0.00 | 0.02 | 0.02 | 50 | 1010.8 |
| 20260509193022 | 86 | 134 | 4.3 | 9.6 | 0.00 | 0.02 | 0.02 | 51 | 1010.8 |
| 20260509191522 | 86 | 173 | 1.7 | 6.1 | 0.00 | 0.02 | 0.02 | 52 | 1010.9 |
| 20260509190026 | 85 | 168 | 1.7 | 6.1 | 0.00 | 0.02 | 0.02 | 51 | 1011.1 |
| 20260509184525 | 84 | 215 | 1.7 | 4.3 | 0.00 | 0.02 | 0.02 | 55 | 1011.2 |
| 20260509183029 | 84 | 84 | 0.9 | 6.1 | 0.00 | 0.02 | 0.02 | 53 | 1011.4 |
| 20260509181519 | 83 | 236 | 2.6 | 5.2 | 0.00 | 0.19 | 0.02 | 59 | 1011.6 |
| 20260509180023 | 83 | 227 | 1.7 | 6.1 | 0.00 | 0.19 | 0.02 | 60 | 1012.0 |
| 20260509174540 | 82 | 307 | 3.5 | 7.0 | 0.00 | 0.19 | 0.02 | 62 | 1012.1 |
| 20260509173026 | 81 | 302 | 1.7 | 7.0 | 0.00 | 0.19 | 0.02 | 65 | 1012.3 |
| 20260509171526 | 80 | 280 | 1.7 | 5.2 | 0.00 | 0.19 | 0.02 | 68 | 1012.4 |
| 20260509170005 | 80 | 319 | 1.7 | 3.5 | 0.00 | 0.19 | 0.02 | 68 | 1012.5 |
| 20260509164508 | 78 | 9 | 1.7 | 7.8 | 0.00 | 0.19 | 0.02 | 72 | 1012.7 |
| 20260509163016 | 77 | 30 | 1.7 | 3.5 | 0.00 | 0.19 | 0.02 | 71 | 1012.9 |
| 20260509161527 | 77 | 322 | 3.5 | 7.8 | 0.00 | 0.19 | 0.02 | 71 | 1012.7 |
| 20260509160022 | 76 | 209 | 2.6 | 7.0 | 0.00 | 0.19 | 0.02 | 73 | 1012.7 |
| 20260509154507 | 75 | 277 | 2.6 | 7.0 | 0.00 | 0.19 | 0.02 | 73 | 1012.8 |
| 20260509153021 | 74 | 246 | 2.6 | 7.0 | 0.00 | 0.19 | 0.02 | 76 | 1012.7 |
| 20260509151518 | 74 | 304 | 2.6 | 8.7 | 0.00 | 0.19 | 0.02 | 75 | 1012.7 |
| 20260509150033 | 73 | 287 | 1.7 | 4.3 | 0.00 | 0.19 | 0.02 | 76 | 1012.8 |
| 20260509144506 | 73 | 341 | 3.5 | 7.0 | 0.00 | 0.19 | 0.02 | 76 | 1012.9 |
| 20260509143008 | 72 | 11 | 3.5 | 7.8 | 0.00 | 0.19 | 0.02 | 77 | 1012.9 |
| 20260509141514 | 71 | 348 | 2.6 | 7.8 | 0.00 | 0.19 | 0.02 | 78 | 1012.9 |
| 20260509140022 | 70 | 19 | 5.2 | 8.7 | 0.00 | 0.19 | 0.02 | 81 | 1012.9 |
| 20260509134527 | 68 | 15 | 3.5 | 6.1 | 0.00 | 0.19 | 0.02 | 82 | 1012.9 |
| 20260509133008 | 66 | 351 | 3.5 | 6.1 | 0.00 | 0.19 | 0.02 | 83 | 1012.7 |
| 20260509131518 | 65 | 23 | 3.5 | 6.1 | 0.00 | 0.19 | 0.02 | 83 | 1012.5 |
| 20260509130022 | 64 | 352 | 2.6 | 5.2 | 0.00 | 0.19 | 0.02 | 85 | 1012.4 |
| 20260509124524 | 63 | 15 | 1.7 | 4.3 | 0.00 | 0.19 | 0.02 | 87 | 1012.0 |
| 20260509123028 | 62 | 29 | 0.9 | 1.7 | 0.00 | 0.19 | 0.02 | 89 | 1011.5 |
| 20260509121514 | 61 | 23 | 0.9 | 3.5 | 0.00 | 0.19 | 0.02 | 89 | 1011.5 |
| 20260509120024 | 61 | 29 | 0.9 | 2.6 | 0.00 | 0.19 | 0.02 | 89 | 1011.4 |
| 20260509114525 | 61 | 47 | 0.9 | 2.6 | 0.00 | 0.19 | 0.02 | 90 | 1011.1 |
| 20260509113026 | 61 | 286 | 0.0 | 2.6 | 0.00 | 0.19 | 0.02 | 88 | 1010.9 |
| 20260509111510 | 62 | 286 | 0.9 | 7.0 | 0.00 | 0.19 | 0.02 | 88 | 1010.7 |
| 20260509110005 | 63 | 275 | 3.5 | 5.2 | 0.00 | 0.19 | 0.02 | 86 | 1010.5 |
| 20260509104508 | 64 | 15 | 2.6 | 3.5 | 0.00 | 0.19 | 0.02 | 86 | 1010.0 |
| 20260509103004 | 65 | 96 | 0.0 | 3.5 | 0.00 | 0.19 | 0.02 | 85 | 1009.9 |
| 20260509101504 | 65 | 88 | 1.7 | 3.5 | 0.00 | 0.19 | 0.02 | 84 | 1009.7 |
| 20260509100008 | 65 | 195 | 2.6 | 6.1 | 0.00 | 0.19 | 0.02 | 83 | 1009.7 |
| 20260509094509 | 64 | 190 | 8.7 | 16.5 | 0.00 | 0.19 | 0.02 | 85 | 1009.9 |
| 20260509093010 | 64 | 238 | 8.7 | 13.9 | 0.00 | 0.19 | 0.02 | 85 | 1010.4 |
| 20260509091510 | 64 | 204 | 3.5 | 9.6 | 0.00 | 0.19 | 0.02 | 86 | 1010.8 |
| 20260509090010 | 63 | 209 | 1.7 | 7.0 | 0.00 | 0.19 | 0.02 | 87 | 1010.9 |
| 20260509084510 | 63 | 144 | 3.5 | 11.3 | 0.00 | 0.19 | 0.02 | 88 | 1010.2 |
| 20260509083015 | 63 | 207 | 5.2 | 10.4 | 0.00 | 0.19 | 0.02 | 87 | 1011.2 |
| 20260509081509 | 63 | 184 | 8.7 | 13.0 | 0.01 | 0.19 | 0.02 | 86 | 1011.0 |
| 20260509080014 | 64 | 182 | 3.5 | 6.1 | 0.02 | 0.19 | 0.02 | 85 | 1011.4 |
| 20260509074508 | 65 | 166 | 2.6 | 3.5 | 0.02 | 0.19 | 0.02 | 82 | 1012.2 |
| 20260509073012 | 66 | 9 | 3.5 | 11.3 | 0.02 | 0.19 | 0.02 | 81 | 1013.1 |
| 20260509071513 | 67 | 52 | 6.1 | 15.6 | 0.01 | 0.18 | 0.01 | 82 | 1013.4 |
| 20260509070014 | 67 | 16 | 5.2 | 14.8 | 0.00 | 0.17 | 0.00 | 88 | 1013.7 |
| 20260509064511 | 68 | 80 | 12.2 | 20.9 | 0.00 | 0.17 | 0.00 | 90 | 1013.7 |
| 20260509063017 | 67 | 37 | 5.2 | 9.6 | 0.00 | 0.17 | 0.00 | 93 | 1012.8 |
| 20260509061513 | 65 | 32 | 5.2 | 8.7 | 0.00 | 0.17 | 0.00 | 92 | 1012.1 |
| 20260509060014 | 65 | 105 | 0.9 | 2.6 | 0.00 | 0.17 | 0.00 | 92 | 1011.0 |
| 20260509054514 | 66 | 132 | 1.7 | 3.5 | 0.00 | 0.17 | 0.00 | 92 | 1011.2 |
| 20260509053014 | 66 | 184 | 1.7 | 5.2 | 0.00 | 0.17 | 0.00 | 91 | 1011.2 |
| 20260509051514 | 66 | 202 | 3.5 | 7.8 | 0.00 | 0.17 | 0.00 | 91 | 1011.0 |
| 20260509050037 | 66 | 165 | 3.5 | 7.8 | 0.00 | 0.17 | 0.00 | 91 | 1010.7 |